Location: Bussy-Saint-Georges
(48.8410°N, 2.7017°E)
Time: 16:22:59
(UTC+00:00)

SL-16 R/B - Pass Details

Date: 18 October 2021
Orbit: 842 x 846 km, 71.0° (Epoch: 29 November)

Event Time Altitude Azimuth Distance (km) Brightness Sun altitude
Rises 17:36:21 0° 150° (SSE) 3,388 5.1 -7.8°
Reaches altitude 10° 17:40:03 10° 125° (SE) 2,461 4.2 -8.4°
Maximum altitude 17:42:44 14° 96° (E) 2,210 3.7 -8.8°
Drops below altitude 10° 17:45:27 10° 68° (ENE) 2,471 4.0 -9.3°
Enters shadow 17:45:27 10° 68° (ENE) 2,472 4.0 -9.3°
